Location: Frankfurt+am+Main
(50.1100°N, 8.4815°E)
Time: 09:06:50
(UTC+01:00)

ISS - Visible Passes

Search period start: 17 February 2019 00:00
Search period end: 27 February 2019 00:00
Orbit: 403 x 411 km, 51.6° (Epoch: 17 February)

Date Brightness Start Highest point End Pass type
(mag) Time Alt. Az. Time Alt. Az. Time Alt. Az.
23 Feb -0.9 06:34:17 10° S 06:36:18 15° SE 06:38:19 10° E visible
25 Feb -1.9 06:26:39 10° SSW 06:29:31 28° SSE 06:32:24 10° E visible
26 Feb -1.4 05:35:49 10° S 05:38:11 19° SE 05:40:34 10° E visible
